This demonstration page uses our WeatherBlox Daily Observations layout. Learn more.

Left ArrowRight Arrow

39.08367, -84.50855

Hourly Observations for April 14, 2022

Temp ( °F °C ) Dew Point ( °F °C ) Humidity (%) Winds ( mph kmh ) Pressure ( in mb ) Visibility ( mi km ) Precip ( " mm )
12:53 am 00:53 Cloudy with Light Rain 60 15.6 59 15 96 96 S 15 24 29.64 1004 10 16 0.01 0.25
1:53 am 01:53 Cloudy with Light Rain 61 16.1 59 15 93 93 SSW 15 24 29.71 1006 9 14 0.00 0.00
2:13 am 02:13 Cloudy with Light Rain 60 15.6 59 15 96 96 SSW 14 22 29.72 1006 7 11 0.01 0.25
2:53 am 02:53 Cloudy 61 16.1 59 15 93 93 S 15 24 29.69 1005 10 16 0.01 0.25
3:40 am 03:40 Cloudy with Light Rain 60 15.6 59 15 96 96 WNW 22 35 29.73 1007 3 4 0.03 0.76
3:48 am 03:48 Cloudy with Light Rain 54 12 52 11 94 94 W 23 37 29.75 1008 3 5 0.04 1.02
3:53 am 03:53 Cloudy with Light Rain 53 11.7 51 10.6 93 93 W 21 33 29.75 1008 7 11 0.04 1.02
4:00 am 04:00 Cloudy with Light Rain 52 11.1 50 10 93 93 W 20 31 29.77 1008 6 10 0.00 0.00
4:25 am 04:25 Cloudy with Light Rain 50 10 49 9.4 96 96 W 15 24 29.80 1009 3 5 0.01 0.25
4:53 am 04:53 Cloudy with Light Rain 49 9.4 47 8.3 93 93 VRB 6 9 29.81 1010 4 6 0.03 0.76
5:27 am 05:27 Cloudy with Light Rain 48 8.9 45 7.2 89 89 W 14 22 29.86 1011 7 11 0.01 0.25
5:36 am 05:36 Cloudy with Light Rain 47 8.3 45 7.2 93 93 W 15 24 29.88 1012 7 11 0.01 0.25
5:45 am 05:45 Cloudy with Light Rain 47 8.3 45 7.2 93 93 NW 9 15 29.87 1012 9 14 0.01 0.25
5:53 am 05:53 Cloudy with Light Rain 47 8.3 45 7.2 93 93 W 8 13 29.86 1011 8 13 0.01 0.25
6:07 am 06:07 Cloudy 47 8.3 44 6.7 90 90 NW 8 13 29.88 1012 10 16 0.00 0.00
6:30 am 06:30 Cloudy 46 7.8 43 6.1 89 89 W 17 28 29.93 1014 10 16 0.00 0.00
6:39 am 06:39 Cloudy 46 7.8 42 5.6 86 86 WNW 18 30 29.93 1014 10 16 0.00 0.00
6:53 am 06:53 Cloudy 46 7.8 41 5 83 83 W 14 22 29.93 1014 10 16 0.00 0.00
7:53 am 07:53 Partly Cloudy 44 6.7 35 1.7 71 71 NW 16 26 29.98 1015 10 16 0.00 0.00
8:53 am 08:53 Sunny 44 6.7 33 0.6 65 65 W 9 15 30.02 1017 10 16 0.00 0.00
9:53 am 09:53 Sunny 47 8.3 32 0 56 56 W 9 15 30.04 1017 10 16 0.00 0.00
10:53 am 10:53 Sunny 50 10 33 0.6 52 52 S 6 9 30.05 1018 10 16 0.00 0.00
11:53 am 11:53 Sunny 53 11.7 34 1.1 48 48 S 8 13 30.06 1018 10 16 0.00 0.00
12:53 pm 12:53 Sunny 57 13.9 30 -1.1 36 36 WSW 12 19 30.07 1018 10 16 0.00 0.00
1:53 pm 13:53 Sunny 59 15 31 -0.6 35 35 W 12 19 30.05 1018 10 16 0.00 0.00
2:53 pm 14:53 Sunny 62 16.7 31 -0.6 31 31 W 13 20 30.04 1017 10 16 0.00 0.00
3:53 pm 15:53 Sunny 62 16.7 26 -3.3 25 25 WSW 18 30 30.03 1017 10 16 0.00 0.00
4:53 pm 16:53 Sunny 63 17.2 28 -2.2 27 27 W 17 28 30.02 1017 10 16 0.00 0.00
5:53 pm 17:53 Sunny 62 16.7 24 -4.4 23 23 WSW 22 35 30.02 1017 10 16 0.00 0.00
6:53 pm 18:53 Mostly Sunny 59 15 20 -6.7 22 22 WSW 22 35 30.04 1017 10 16 0.00 0.00
7:53 pm 19:53 Mostly Sunny 58 14.4 21 -6.1 24 24 W 13 20 30.05 1018 10 16 0.00 0.00
8:53 pm 20:53 Mostly Clear 52 11.1 24 -4.4 34 34 SW 9 15 30.07 1018 10 16 0.00 0.00
9:53 pm 21:53 Clear 48 8.9 29 -1.7 48 48 SSW 9 15 30.09 1019 10 16 0.00 0.00
10:53 pm 22:53 Mostly Clear 43 6.1 35 1.7 74 74 WSW 6 9 30.10 1019 10 16 0.00 0.00
11:53 pm 23:53 Clear 44 6.7 33 0.6 65 65 WSW 6 9 30.10 1019 10 16 0.00 0.00

Powered by AerisWeather